[[[{"header":{"parameterUnit":"kt","parameterCategory":2,"dx":1,"dy":1,"la1":30.253999710083008,"la2":30.299108505249023,"lo1":-89.0895004272461,"lo2":-89.04439544677734,"nx":28,"ny":28,"refTime":"2022-09-28T21:00:00:Z","depth":"0","parameterNumber":2,"parameterNumberName":"U-component_of_CURRENTS"},"data":[0.3513,0.3521,0.3568,0.3551,0.3592,0.3567,0.3599,0.3678,0.3912,0.4242,0.4605,0.4963,0.5703,0.6343,0.6422,0.6226,0.5672,0.5523,0.5325,0.5775,0.5773,0.5772,0.5743,0.5786,0.5786,0.4645,0.4638,0.4632,0.3585,0.3632,0.3696,0.3762,0.3779,0.3895,0.4019,0.4034,0.4133,0.4491,0.47,0.5234,0.5543,0.5845,0.6183,0.6058,0.5699,0.5913,0.5558,0.5374,0.5862,0.5838,0.5902,0.5902,0.5902,0.5902,0.5902,0.5902,0.3722,0.3734,0.3837,0.3907,0.3986,0.4065,0.4077,0.4277,0.4403,0.4615,0.4881,0.5141,0.5589,0.595,0.5943,0.6041,0.5844,0.5939,0.5921,0.5675,0.5451,0.592,0.6045,0.6046,0.6046,0.6046,0.6047,0,0.3827,0.3879,0.3961,0.405,0.4133,0.4214,0.4375,0.4417,0.4681,0.4799,0.503,0.5197,0.5567,0.5757,0.5973,0.6012,0.5783,0.5972,0.5934,0.5775,0.5484,0.5274,0.5716,0.5848,0.5847,0.5847,0.5846,0.5846,0.3917,0.3964,0.4131,0.4177,0.4262,0.4378,0.4462,0.4663,0.4766,0.5028,0.51,0.5335,0.5508,0.5761,0.5882,0.5993,0.5797,0.5953,0.5859,0.5803,0.5772,0.5519,0.5334,0.5838,0.5839,0.584,0.5841,0,0.3958,0.4084,0.4182,0.4379,0.443,0.4502,0.4664,0.4751,0.4925,0.5043,0.5098,0.5332,0.5515,0.5627,0.575,0.5752,0.5733,0.584,0.5777,0.5772,0.5759,0.5731,0.5596,0.5393,0.5902,0.5904,0.5906,0,0.4068,0.4132,0.4315,0.4371,0.4465,0.463,0.4729,0.4856,0.5013,0.5106,0.5252,0.5333,0.5457,0.5559,0.5575,0.5673,0.5682,0.5659,0.5661,0.561,0.5607,0.5558,0.5522,0.5636,0.5636,0.5635,0.5634,0,0.409,0.4256,0.4341,0.4396,0.4594,0.4651,0.4762,0.4919,0.4989,0.5168,0.5215,0.5349,0.5414,0.5465,0.5521,0.5474,0.5634,0.5566,0.5611,0.5612,0.5569,0.5563,0.5674,0.5634,0.5633,0.5633,0.5633,0,0.4172,0.4271,0.4378,0.4538,0.4578,0.4656,0.4801,0.4903,0.5059,0.511,0.5198,0.5249,0.5351,0.5308,0.542,0.5383,0.5393,0.541,0.5413,0.5421,0.537,0.5396,0.5543,0.5504,0.5414,0.5413,0.5411,0,0.4162,0.4291,0.4379,0.4491,0.4566,0.4662,0.4754,0.4862,0.4939,0.5039,0.5096,0.5176,0.5157,0.5188,0.5238,0.5278,0.5322,0.5259,0.5297,0.5298,0.5321,0.5472,0.5433,0.5514,0.539,0.5392,0.5393,0,0.4149,0.4331,0.4339,0.4405,0.4541,0.4603,0.4695,0.4809,0.4877,0.4946,0.5026,0.509,0.511,0.5122,0.5133,0.5177,0.5282,0.5147,0.5147,0.517,0.5389,0.5434,0.5452,0.5283,0.5286,0.5288,0.5376,0,0.4233,0.4298,0.4332,0.4453,0.4515,0.4581,0.4682,0.4739,0.4778,0.4835,0.4919,0.4941,0.4983,0.5002,0.4994,0.5087,0.5066,0.5042,0.4978,0.5075,0.5098,0.5113,0.4914,0.4912,0.491,0.4909,0,0,0.4182,0.427,0.434,0.4411,0.4463,0.4539,0.4599,0.4654,0.4732,0.4765,0.475,0.4828,0.4824,0.4899,0.4938,0.4932,0.4945,0.4892,0.5024,0.5037,0.5049,0.5077,0.5092,0.4906,0.4905,0.4904,0.4904,0,0.422,0.4271,0.4318,0.4385,0.4482,0.4532,0.4557,0.4637,0.4665,0.4725,0.4726,0.4767,0.4777,0.4804,0.4812,0.4903,0.4859,0.4901,0.4956,0.5007,0.5023,0.5036,0.5067,0.5082,0.4899,0.49,0.49,0,0.4223,0.429,0.4313,0.4416,0.4463,0.4531,0.4534,0.4594,0.4646,0.4612,0.466,0.467,0.4668,0.4714,0.4727,0.4691,0.4782,0.4735,0.4745,0.4736,0.4784,0.4803,0.4819,0.4608,0.4607,0.4607,0,0,0.4245,0.4294,0.4389,0.4428,0.4465,0.452,0.4549,0.4578,0.4614,0.4623,0.4622,0.4624,0.4646,0.4647,0.4655,0.4681,0.4674,0.4702,0.4715,0.4727,0.4725,0.4776,0.4794,0.4604,0.4604,0.4604,0,0,0.4248,0.4351,0.4374,0.4424,0.4493,0.4555,0.4573,0.4594,0.4615,0.4607,0.4586,0.4584,0.4625,0.4596,0.4565,0.4629,0.457,0.4576,0.4647,0.4663,0.4677,0.4674,0.4501,0,0,0,0,0,0.4322,0.4346,0.4366,0.4384,0.4472,0.4551,0.456,0.4584,0.4573,0.4595,0.46,0.4552,0.4588,0.4559,0.4554,0.4587,0.4567,0.4573,0.458,0.4678,0.4696,0.4711,0,0,0,0,0,0,0.433,0.4353,0.4365,0.443,0.4451,0.4548,0.453,0.4536,0.4571,0.4571,0.4557,0.4552,0.4531,0.4558,0.4554,0.4587,0.4502,0.4569,0.4575,0.458,0.4684,0.4699,0.4711,0,0,0,0,0,0.4337,0.4355,0.4492,0.4429,0.4446,0.4494,0.4528,0.4533,0.4552,0.4544,0.4541,0.4574,0.4531,0.4527,0.4555,0.4591,0.4504,0.4503,0.4573,0.4577,0.4581,0.4691,0,0,0,0,0,0,0.4342,0.434,0.4496,0.4502,0.4423,0.4488,0.45,0.4531,0.4521,0.4523,0.4558,0.4558,0.4532,0.4528,0.4525,0.4596,0.4506,0.4505,0.4504,0.4576,0.458,0.4583,0,0,0,0,0,0,0.4332,0.4345,0.4498,0.449,0.4495,0.4483,0.4494,0.4483,0.4518,0.4532,0.4534,0.4558,0.4522,0.4529,0.4526,0.4509,0.4508,0.4507,0.4506,0.4505,0.4579,0.4582,0,0,0,0,0,0,0.4337,0.4349,0.4488,0.4491,0.4495,0.4558,0.4469,0.4542,0.4563,0.4529,0.4562,0.4561,0.4522,0.452,0.4528,0.4511,0.4509,0.4508,0.4507,0.4506,0.4506,0,0,0,0,0,0,0,0.4342,0.4264,0.4471,0.4493,0.4496,0.456,0.4561,0.4561,0.4563,0.4563,0.4562,0.4562,0.4515,0.4514,0.4512,0.4514,0,0,0.4508,0.4507,0,0,0,0,0,0,0,0,0.4259,0.4263,0.4472,0.4473,0.4475,0.456,0.4561,0.4561,0.4563,0.4563,0.4562,0.4562,0.4515,0.4514,0.4513,0,0,0,0,0,0,0,0,0,0,0,0,0,0,0,0.4472,0.4473,0,0.4561,0.4561,0.4561,0.4563,0.4563,0.4562,0.4562,0.4514,0.4514,0.4513,0,0,0,0,0,0,0,0,0,0,0,0,0,0,0,0,0,0,0,0,0,0,0,0,0,0,0,0,0,0,0,0,0,0,0,0,0,0,0,0,0,0,0,0,0,0,0,0,0,0,0,0,0,0,0,0,0,0,0,0,0,0,0,0,0,0,0,0,0]}],[{"header":{"parameterUnit":"kt","parameterCategory":2,"dx":1,"dy":1,"la1":30.253999710083008,"la2":30.299108505249023,"lo1":-89.0895004272461,"lo2":-89.04439544677734,"nx":28,"ny":28,"refTime":"2022-09-28T21:00:00:Z","depth":"0","parameterNumber":3,"parameterNumberName":"V-component_of_CURRENTS"},"data":[0.059,0.073,0.079,0.1034,0.114,0.1335,0.1464,0.165,0.1792,0.1917,0.1904,0.1825,0.1068,-0.1243,-0.2929,-0.331,-0.385,-0.3974,-0.422,-0.3621,-0.3559,-0.35,-0.3579,-0.4109,-0.4111,-0.5106,-0.5117,-0.5125,0.0529,0.0606,0.0729,0.0874,0.1014,0.1038,0.1247,0.1369,0.1577,0.1709,0.1772,0.1406,0.0535,-0.0366,-0.1653,-0.2354,-0.2653,-0.2771,-0.3076,-0.3157,-0.2193,-0.2221,-0.247,-0.247,-0.247,-0.2469,-0.2469,-0.2469,0.042,0.049,0.0576,0.0696,0.0799,0.095,0.1058,0.1191,0.1341,0.1483,0.1411,0.1388,0.0694,-0.015,-0.0654,-0.1625,-0.1638,-0.1912,-0.2132,-0.2275,-0.2464,-0.1371,-0.1465,-0.1465,-0.1464,-0.1464,-0.1464,0,0.0325,0.0349,0.0412,0.0531,0.0618,0.0706,0.0817,0.0919,0.0943,0.0999,0.1086,0.1033,0.0568,0.0127,-0.0479,-0.0814,-0.152,-0.1244,-0.1637,-0.2037,-0.2247,-0.2433,-0.1333,-0.138,-0.1379,-0.1378,-0.1378,-0.1377,0.0206,0.0255,0.0317,0.0376,0.04,0.0478,0.0547,0.0542,0.0622,0.0636,0.0704,0.0542,0.0459,-0.0006,-0.0479,-0.0909,-0.1271,-0.121,-0.1301,-0.1671,-0.194,-0.212,-0.2247,-0.1367,-0.1368,-0.1369,-0.137,0,0.0149,0.0137,0.021,0.0238,0.0257,0.0327,0.0383,0.0442,0.0408,0.0471,0.0462,0.0313,0.0118,-0.02,-0.0504,-0.0744,-0.1225,-0.1096,-0.1103,-0.115,-0.1652,-0.1861,-0.2252,-0.2421,-0.1277,-0.1278,-0.1278,0,0.0033,0.0082,0.0073,0.0109,0.0201,0.0159,0.0241,0.0212,0.0204,0.0253,0.0055,0.0069,-0.0244,-0.0385,-0.0639,-0.0885,-0.0857,-0.1126,-0.1174,-0.1199,-0.1204,-0.1565,-0.1782,-0.1128,-0.1127,-0.1127,-0.1126,0,-0.0067,-0.0047,0.0008,0.0008,0.0002,0.0037,0.0034,-0.0009,0.0007,-0.0078,-0.0074,-0.023,-0.0281,-0.0478,-0.0722,-0.0762,-0.0923,-0.1005,-0.1158,-0.1162,-0.1227,-0.1237,-0.1581,-0.1125,-0.1125,-0.1125,-0.1125,0,-0.018,-0.0165,-0.0107,-0.0094,-0.0092,-0.0076,-0.0077,-0.0092,-0.0168,-0.0221,-0.0306,-0.0411,-0.0512,-0.0625,-0.0814,-0.0793,-0.0934,-0.1045,-0.1051,-0.1094,-0.1172,-0.1247,-0.1244,-0.1621,-0.1154,-0.1153,-0.1153,0,-0.0263,-0.0223,-0.0269,-0.0228,-0.0217,-0.0299,-0.0291,-0.0346,-0.0414,-0.0442,-0.0577,-0.0617,-0.0751,-0.0776,-0.085,-0.0976,-0.1029,-0.1005,-0.1146,-0.115,-0.1152,-0.1132,-0.1166,-0.1237,-0.115,-0.115,-0.115,0,-0.0341,-0.0381,-0.0376,-0.0367,-0.0438,-0.0453,-0.0467,-0.0516,-0.0505,-0.0619,-0.0616,-0.0746,-0.0814,-0.0858,-0.0954,-0.1003,-0.103,-0.1072,-0.1076,-0.1084,-0.1107,-0.1127,-0.1132,-0.1071,-0.1071,-0.1071,-0.1148,0,-0.0446,-0.0445,-0.0437,-0.0473,-0.0503,-0.0511,-0.0598,-0.0627,-0.0689,-0.075,-0.0805,-0.0917,-0.0977,-0.1022,-0.1088,-0.1101,-0.1133,-0.1172,-0.1185,-0.1163,-0.1205,-0.1206,-0.121,-0.1211,-0.1213,-0.1214,0,0,-0.0513,-0.0516,-0.0594,-0.0591,-0.0609,-0.0723,-0.0711,-0.0765,-0.0856,-0.0872,-0.0918,-0.1034,-0.1102,-0.1137,-0.1149,-0.1192,-0.1221,-0.1168,-0.1182,-0.1178,-0.1175,-0.1212,-0.1212,-0.1216,-0.1217,-0.1217,-0.1217,0,-0.0561,-0.0604,-0.0591,-0.0633,-0.07,-0.0755,-0.0762,-0.0849,-0.0883,-0.0928,-0.1001,-0.1059,-0.1131,-0.1179,-0.1212,-0.1209,-0.1245,-0.1228,-0.1157,-0.1193,-0.1187,-0.1183,-0.1217,-0.1217,-0.1221,-0.122,-0.122,0,-0.0629,-0.0671,-0.0677,-0.0743,-0.0791,-0.081,-0.0886,-0.0918,-0.0931,-0.1028,-0.1052,-0.1121,-0.1193,-0.1224,-0.1241,-0.1251,-0.1269,-0.1268,-0.1263,-0.1237,-0.1275,-0.1269,-0.1264,-0.1329,-0.1329,-0.1329,0,0,-0.0661,-0.067,-0.0759,-0.0761,-0.0786,-0.0869,-0.0896,-0.094,-0.1003,-0.1027,-0.1081,-0.1137,-0.1187,-0.1209,-0.1257,-0.1279,-0.1306,-0.1276,-0.1271,-0.1266,-0.1238,-0.1275,-0.1269,-0.1328,-0.1328,-0.1328,0,0,-0.0681,-0.076,-0.0795,-0.0799,-0.0861,-0.0947,-0.095,-0.0998,-0.1051,-0.1052,-0.1123,-0.1139,-0.1175,-0.1213,-0.1202,-0.1246,-0.1274,-0.1278,-0.1203,-0.1197,-0.1193,-0.1145,-0.1231,0,0,0,0,0,-0.077,-0.0751,-0.0781,-0.0793,-0.0876,-0.0933,-0.0947,-0.1005,-0.1027,-0.1032,-0.1094,-0.1112,-0.1225,-0.1217,-0.1229,-0.1209,-0.1323,-0.1324,-0.1325,-0.1236,-0.1229,-0.1224,0,0,0,0,0,0,-0.0775,-0.0789,-0.0783,-0.0864,-0.0884,-0.0934,-0.0977,-0.0993,-0.1028,-0.1034,-0.1103,-0.1114,-0.1157,-0.1213,-0.1223,-0.1203,-0.1228,-0.1323,-0.1324,-0.1325,-0.1234,-0.1228,-0.1224,0,0,0,0,0,-0.078,-0.0791,-0.0902,-0.0866,-0.0883,-0.0963,-0.0977,-0.0991,-0.1017,-0.1088,-0.1101,-0.1059,-0.1155,-0.1167,-0.1219,-0.1198,-0.1221,-0.1224,-0.1324,-0.1324,-0.1325,-0.1231,0,0,0,0,0,0,-0.0784,-0.0806,-0.0908,-0.0916,-0.0867,-0.0961,-0.0975,-0.0988,-0.107,-0.1083,-0.1047,-0.1051,-0.1154,-0.1164,-0.1173,-0.1193,-0.1215,-0.1219,-0.1221,-0.1324,-0.1325,-0.1325,0,0,0,0,0,0,-0.0801,-0.0812,-0.0912,-0.091,-0.0919,-0.096,-0.0972,-0.1007,-0.1069,-0.1024,-0.103,-0.1048,-0.1138,-0.1161,-0.1169,-0.1222,-0.1211,-0.1215,-0.1217,-0.1219,-0.1324,-0.1325,0,0,0,0,0,0,-0.0807,-0.0817,-0.0908,-0.0915,-0.0923,-0.1022,-0.0992,-0.107,-0.1077,-0.1018,-0.1079,-0.108,-0.1134,-0.1143,-0.1165,-0.1216,-0.1221,-0.1211,-0.1214,-0.1215,-0.1217,0,0,0,0,0,0,0,-0.0812,-0.0726,-0.0859,-0.0919,-0.0926,-0.0996,-0.0998,-0.1,-0.1078,-0.1078,-0.1079,-0.108,-0.1191,-0.1195,-0.1199,-0.121,0,0,-0.1211,-0.1213,0,0,0,0,0,0,0,0,-0.0724,-0.0726,-0.0859,-0.0861,-0.0863,-0.0996,-0.0998,-0.0999,-0.1078,-0.1078,-0.1079,-0.1079,-0.1192,-0.1195,-0.1198,0,0,0,0,0,0,0,0,0,0,0,0,0,0,0,-0.0859,-0.0861,0,-0.0996,-0.0998,-0.0999,-0.1078,-0.1078,-0.1079,-0.1079,-0.1193,-0.1196,-0.1198,0,0,0,0,0,0,0,0,0,0,0,0,0,0,0,0,0,0,0,0,0,0,0,0,0,0,0,0,0,0,0,0,0,0,0,0,0,0,0,0,0,0,0,0,0,0,0,0,0,0,0,0,0,0,0,0,0,0,0,0,0,0,0,0,0,0,0,0,0]}]],[[{"header":{"parameterUnit":"kt","parameterCategory":2,"dx":1,"dy":1,"la1":30.253999710083008,"la2":30.299108505249023,"lo1":-89.0895004272461,"lo2":-89.04439544677734,"nx":28,"ny":28,"refTime":"2022-09-28T21:00:00:Z","depth":"2","parameterNumber":2,"parameterNumberName":"U-component_of_CURRENTS"},"data":[0.348,0.3484,0.3529,0.3503,0.3553,0.3504,0.3532,0.3525,0.3623,0.3598,0.3626,0.3974,0.4233,0.3717,0.3745,0.3552,0.368,0.3438,0.4641,0.4364,0.4403,0.4553,0.4414,0,0,0,0,0,0.3552,0.3606,0.367,0.3736,0.374,0.3867,0.3984,0.3953,0.4009,0.4215,0.4358,0.4144,0.4218,0.434,0.4246,0.4352,0.4202,0.4157,0.3873,0.393,0.3979,0.3837,0.3432,0.3426,0.3421,0.3416,0,0,0.3691,0.3704,0.3806,0.3877,0.3956,0.4031,0.4044,0.4214,0.4328,0.4469,0.475,0.4838,0.4991,0.5081,0.5002,0.4961,0.5309,0.5045,0.5051,0.5065,0.4993,0.4931,0.4887,0.4892,0.4897,0.4901,0.4904,0,0.3791,0.3843,0.3925,0.4014,0.4099,0.4181,0.4341,0.438,0.464,0.4754,0.497,0.5119,0.5407,0.5372,0.554,0.5514,0.5402,0.5336,0.5833,0.4897,0.4822,0.48,0.4812,0.4775,0.478,0.4783,0.4786,0.4788,0.3878,0.3925,0.4091,0.4138,0.4223,0.4342,0.4426,0.4627,0.4729,0.4986,0.5053,0.5277,0.5429,0.5654,0.5706,0.5787,0.5804,0.5432,0.5293,0.5678,0.566,0.5645,0.5632,0.4839,0.4832,0.4827,0.4823,0,0.3916,0.4041,0.4138,0.4334,0.4386,0.446,0.4624,0.4711,0.4888,0.5005,0.5061,0.5286,0.5454,0.556,0.5669,0.5664,0.5725,0.5733,0.5305,0.5255,0.5628,0.5616,0.5767,0.5769,0.5771,0.5772,0.5773,0,0.4023,0.4088,0.4269,0.4324,0.442,0.4583,0.4686,0.4813,0.497,0.5063,0.5213,0.5289,0.5408,0.5501,0.5513,0.5592,0.5607,0.5568,0.5567,0.5198,0.5168,0.5424,0.5407,0.556,0.556,0.5559,0.5559,0,0.4043,0.4208,0.4293,0.4348,0.4542,0.4602,0.4712,0.4871,0.4942,0.5124,0.5174,0.5305,0.5366,0.5413,0.5461,0.5418,0.5562,0.5496,0.5523,0.5523,0.5164,0.5131,0.5558,0.5558,0.5558,0.5557,0.5557,0,0.4123,0.4218,0.4326,0.4484,0.4525,0.4603,0.4751,0.4851,0.5008,0.5064,0.5154,0.5206,0.5305,0.5263,0.5366,0.5332,0.5338,0.535,0.5353,0.5344,0.529,0.4971,0.5035,0.5348,0.5346,0.5345,0.5343,0,0.411,0.4238,0.4323,0.4436,0.451,0.4607,0.4699,0.4806,0.4887,0.4988,0.5046,0.5129,0.5111,0.5144,0.5191,0.5226,0.5267,0.5209,0.5235,0.5236,0.5242,0.539,0.4984,0.5023,0.5323,0.5325,0.5327,0,0.4095,0.4273,0.4282,0.4347,0.4483,0.4544,0.4638,0.4752,0.4822,0.4892,0.4974,0.5042,0.5063,0.5076,0.5086,0.5127,0.5229,0.5097,0.5096,0.5113,0.5327,0.5355,0.5371,0.5229,0.5232,0.5234,0.531,0,0.4173,0.4237,0.4273,0.4391,0.4453,0.4521,0.462,0.4678,0.472,0.4776,0.4865,0.4889,0.4933,0.4952,0.4945,0.5038,0.5014,0.499,0.4923,0.5021,0.504,0.5053,0.4864,0.4862,0.486,0.4858,0,0,0.412,0.4205,0.4274,0.4345,0.4397,0.4472,0.4533,0.4588,0.4666,0.4701,0.4689,0.477,0.4768,0.4845,0.4886,0.4881,0.4891,0.4839,0.4971,0.4984,0.4996,0.5019,0.5033,0.4855,0.4854,0.4854,0.4853,0,0.4154,0.4205,0.4252,0.4318,0.4416,0.4463,0.4489,0.4567,0.4597,0.466,0.4661,0.4706,0.472,0.4746,0.4755,0.4851,0.4803,0.485,0.4907,0.4954,0.4969,0.4983,0.5009,0.5023,0.4848,0.4849,0.4849,0,0.4153,0.4217,0.424,0.434,0.4388,0.4455,0.4457,0.452,0.4571,0.4538,0.459,0.4602,0.4602,0.4651,0.4667,0.463,0.4722,0.4677,0.4687,0.4678,0.4722,0.474,0.4756,0.4546,0.4545,0.4544,0,0,0.4173,0.422,0.4311,0.435,0.4389,0.4442,0.4472,0.45,0.4538,0.4548,0.4549,0.4554,0.4579,0.4581,0.4592,0.4621,0.4611,0.4642,0.4657,0.4668,0.4666,0.4713,0.4731,0.4541,0.4541,0.4541,0,0,0.4174,0.4272,0.4294,0.4344,0.4413,0.447,0.4492,0.4512,0.4537,0.4533,0.4511,0.451,0.4557,0.4528,0.4495,0.4563,0.4502,0.4508,0.4581,0.4598,0.4611,0.4608,0.4427,0,0,0,0,0,0.4242,0.4266,0.4286,0.4304,0.4389,0.4466,0.4475,0.45,0.449,0.4514,0.4523,0.4474,0.4519,0.4488,0.4483,0.4517,0.4502,0.4509,0.4516,0.4616,0.4635,0.465,0,0,0,0,0,0,0.425,0.4272,0.4286,0.4347,0.4367,0.4463,0.4444,0.445,0.4488,0.4489,0.4477,0.4473,0.4452,0.4486,0.4483,0.4517,0.4428,0.4505,0.4511,0.4516,0.4622,0.4638,0.4651,0,0,0,0,0,0.4256,0.4274,0.4407,0.4345,0.4362,0.441,0.4443,0.4448,0.447,0.4462,0.4459,0.4493,0.4452,0.4448,0.4484,0.452,0.443,0.4429,0.4509,0.4513,0.4517,0.463,0,0,0,0,0,0,0.4261,0.4259,0.441,0.4416,0.4341,0.4404,0.4416,0.4446,0.4439,0.4441,0.4473,0.4473,0.4453,0.4449,0.4447,0.4525,0.4432,0.4431,0.443,0.4512,0.4516,0.4519,0,0,0,0,0,0,0.4251,0.4264,0.4413,0.4406,0.4411,0.44,0.441,0.44,0.4436,0.4448,0.445,0.4473,0.4444,0.445,0.4448,0.4432,0.4433,0.4432,0.4431,0.4431,0.4515,0.4518,0,0,0,0,0,0,0.4257,0.4268,0.4404,0.4408,0.4412,0.4472,0.4387,0.4458,0.4478,0.4445,0.4478,0.4477,0.4444,0.4442,0.4449,0.4434,0.4433,0.4433,0.4432,0.4432,0.4431,0,0,0,0,0,0,0,0.4261,0.4185,0.4387,0.4409,0.4412,0.4473,0.4473,0.4474,0.4478,0.4478,0.4478,0.4477,0.4439,0.4438,0.4437,0.4436,0,0,0.4433,0.4433,0,0,0,0,0,0,0,0,0.4181,0.4184,0.4387,0.4389,0.4391,0.4473,0.4473,0.4474,0.4478,0.4478,0.4478,0.4478,0.4439,0.4438,0.4437,0,0,0,0,0,0,0,0,0,0,0,0,0,0,0,0.4387,0.4389,0,0.4473,0.4473,0.4474,0.4478,0.4478,0.4478,0.4478,0.4439,0.4438,0.4437,0,0,0,0,0,0,0,0,0,0,0,0,0,0,0,0,0,0,0,0,0,0,0,0,0,0,0,0,0,0,0,0,0,0,0,0,0,0,0,0,0,0,0,0,0,0,0,0,0,0,0,0,0,0,0,0,0,0,0,0,0,0,0,0,0,0,0,0,0]}],[{"header":{"parameterUnit":"kt","parameterCategory":2,"dx":1,"dy":1,"la1":30.253999710083008,"la2":30.299108505249023,"lo1":-89.0895004272461,"lo2":-89.04439544677734,"nx":28,"ny":28,"refTime":"2022-09-28T21:00:00:Z","depth":"2","parameterNumber":3,"parameterNumberName":"V-component_of_CURRENTS"},"data":[0.0743,0.0881,0.0941,0.1179,0.1276,0.1474,0.1599,0.1772,0.1873,0.1966,0.1918,0.1775,0.1079,0.0499,-0.0183,-0.0662,-0.0776,-0.076,-0.0703,-0.0556,-0.0548,-0.1009,-0.0953,0,0,0,0,0,0.0684,0.0752,0.0872,0.1015,0.1158,0.1176,0.138,0.1499,0.1692,0.1761,0.1798,0.1397,0.0896,0.0317,-0.0523,-0.1012,-0.106,-0.1158,-0.1102,-0.1099,-0.1097,-0.1067,-0.1121,-0.1122,-0.1124,-0.1125,0,0,0.0576,0.0644,0.073,0.0845,0.0946,0.1095,0.1199,0.1326,0.1468,0.1582,0.1508,0.1422,0.0937,0.0178,-0.0345,-0.0915,-0.0917,-0.1095,-0.1092,-0.109,-0.1061,-0.1041,-0.1113,-0.1113,-0.1114,-0.1114,-0.1115,0,0.0488,0.0511,0.0575,0.069,0.0775,0.0863,0.0969,0.1067,0.109,0.114,0.1212,0.1149,0.0689,0.0273,-0.0324,-0.0618,-0.0915,-0.0992,-0.0992,-0.0976,-0.0953,-0.0991,-0.0989,-0.1013,-0.1014,-0.1014,-0.1014,-0.1014,0.0377,0.0425,0.0488,0.0545,0.0568,0.0643,0.0709,0.0705,0.0782,0.0787,0.0852,0.0681,0.0588,0.012,-0.0336,-0.076,-0.0829,-0.0979,-0.1048,-0.1047,-0.1089,-0.1084,-0.1079,-0.1015,-0.1015,-0.1014,-0.1014,0,0.0324,0.0315,0.0388,0.0419,0.0437,0.0503,0.0556,0.0612,0.0575,0.0631,0.0619,0.0466,0.0265,-0.0049,-0.0353,-0.0588,-0.0841,-0.094,-0.086,-0.0896,-0.1074,-0.1071,-0.1122,-0.1124,-0.1125,-0.1126,-0.1127,0,0.0217,0.0264,0.0261,0.0297,0.0384,0.0346,0.0421,0.0392,0.038,0.0424,0.0227,0.0235,-0.0075,-0.0219,-0.0468,-0.0717,-0.0689,-0.0951,-0.0998,-0.0947,-0.0946,-0.0973,-0.0975,-0.0947,-0.0947,-0.0946,-0.0946,0,0.0122,0.0147,0.02,0.0202,0.02,0.0232,0.023,0.0183,0.0198,0.0107,0.0106,-0.0052,-0.0107,-0.0302,-0.0544,-0.0579,-0.0748,-0.0821,-0.0977,-0.0982,-0.0975,-0.0978,-0.0945,-0.0945,-0.0944,-0.0944,-0.0944,0,0.0017,0.0035,0.0092,0.011,0.0111,0.0127,0.0123,0.0109,0.003,-0.0027,-0.0116,-0.0221,-0.0323,-0.0432,-0.0623,-0.0599,-0.0739,-0.0848,-0.0854,-0.0902,-0.0974,-0.0979,-0.0966,-0.0956,-0.0955,-0.0955,-0.0955,0,-0.0062,-0.0019,-0.006,-0.0019,-0.0007,-0.0088,-0.0079,-0.0134,-0.0205,-0.0236,-0.037,-0.0414,-0.0543,-0.057,-0.0645,-0.0769,-0.0823,-0.0794,-0.094,-0.0943,-0.0952,-0.094,-0.0888,-0.0959,-0.0949,-0.095,-0.095,0,-0.0135,-0.0169,-0.0164,-0.0155,-0.0222,-0.0235,-0.025,-0.0298,-0.0291,-0.0405,-0.0408,-0.0534,-0.0605,-0.0646,-0.0738,-0.0787,-0.0821,-0.0855,-0.0859,-0.0872,-0.0906,-0.0932,-0.0938,-0.0861,-0.0861,-0.0861,-0.0946,0,-0.0231,-0.0229,-0.0222,-0.0255,-0.0282,-0.0292,-0.0375,-0.0405,-0.047,-0.053,-0.0589,-0.0697,-0.0758,-0.0799,-0.0862,-0.0878,-0.0911,-0.0946,-0.0958,-0.0939,-0.0984,-0.0987,-0.0975,-0.0976,-0.0978,-0.0979,0,0,-0.0295,-0.0297,-0.0372,-0.0368,-0.0385,-0.0498,-0.0485,-0.0537,-0.0628,-0.0646,-0.0694,-0.0808,-0.0874,-0.0907,-0.0919,-0.0958,-0.099,-0.0937,-0.0955,-0.0952,-0.095,-0.099,-0.0991,-0.0981,-0.0981,-0.0982,-0.0982,0,-0.0338,-0.0382,-0.0368,-0.0408,-0.0474,-0.0526,-0.0535,-0.0619,-0.0655,-0.0701,-0.0773,-0.0832,-0.0901,-0.0946,-0.0978,-0.0975,-0.1011,-0.0992,-0.0926,-0.0965,-0.0961,-0.0957,-0.0995,-0.0995,-0.0985,-0.0985,-0.0985,0,-0.0402,-0.0441,-0.0448,-0.051,-0.0558,-0.0575,-0.0652,-0.0686,-0.0699,-0.0795,-0.0821,-0.0889,-0.0957,-0.0987,-0.1004,-0.1013,-0.1033,-0.1029,-0.1024,-0.1001,-0.1042,-0.1037,-0.1032,-0.1086,-0.1086,-0.1086,0,0,-0.0432,-0.0439,-0.0523,-0.0526,-0.0552,-0.0633,-0.0661,-0.0706,-0.0768,-0.0794,-0.0847,-0.0904,-0.0951,-0.0973,-0.1019,-0.1039,-0.1067,-0.1036,-0.1032,-0.1027,-0.1002,-0.1041,-0.1037,-0.1085,-0.1085,-0.1085,0,0,-0.045,-0.0524,-0.0559,-0.0564,-0.0624,-0.0705,-0.0711,-0.076,-0.0815,-0.082,-0.0889,-0.0904,-0.0942,-0.0977,-0.0967,-0.1009,-0.1035,-0.1038,-0.0968,-0.0963,-0.0958,-0.0915,-0.0994,0,0,0,0,0,-0.0532,-0.0514,-0.0545,-0.0557,-0.0637,-0.069,-0.0703,-0.0764,-0.0791,-0.0797,-0.0861,-0.0879,-0.0989,-0.0981,-0.0992,-0.0974,-0.1079,-0.108,-0.1081,-0.0998,-0.0992,-0.0987,0,0,0,0,0,0,-0.0538,-0.055,-0.0546,-0.0623,-0.0643,-0.069,-0.0736,-0.0753,-0.0791,-0.0799,-0.0869,-0.088,-0.092,-0.0978,-0.0987,-0.0968,-0.0991,-0.108,-0.1081,-0.1081,-0.0996,-0.0991,-0.0987,0,0,0,0,0,-0.0542,-0.0553,-0.066,-0.0625,-0.0642,-0.0723,-0.0737,-0.0751,-0.0782,-0.0849,-0.0863,-0.0828,-0.0919,-0.0931,-0.0983,-0.0963,-0.0985,-0.0988,-0.108,-0.1081,-0.1082,-0.0994,0,0,0,0,0,0,-0.0545,-0.0567,-0.0665,-0.0674,-0.063,-0.0722,-0.0736,-0.0749,-0.0832,-0.0846,-0.081,-0.0814,-0.0917,-0.0927,-0.0936,-0.0959,-0.098,-0.0983,-0.0985,-0.1081,-0.1081,-0.1082,0,0,0,0,0,0,-0.0563,-0.0573,-0.0669,-0.0672,-0.0682,-0.0721,-0.0733,-0.0764,-0.0831,-0.0787,-0.0794,-0.0811,-0.0902,-0.0924,-0.0931,-0.0978,-0.0976,-0.0979,-0.0981,-0.0983,-0.1081,-0.1082,0,0,0,0,0,0,-0.0569,-0.0578,-0.0671,-0.0677,-0.0686,-0.0782,-0.075,-0.0825,-0.0841,-0.0782,-0.0843,-0.0845,-0.0898,-0.0907,-0.0928,-0.0971,-0.0976,-0.0976,-0.0978,-0.098,-0.0981,0,0,0,0,0,0,0,-0.0574,-0.049,-0.0618,-0.0682,-0.0689,-0.0751,-0.0753,-0.0755,-0.0841,-0.0842,-0.0843,-0.0844,-0.0957,-0.0961,-0.0965,-0.0966,0,0,-0.0976,-0.0977,0,0,0,0,0,0,0,0,-0.0488,-0.049,-0.0618,-0.062,-0.0622,-0.0751,-0.0753,-0.0754,-0.0841,-0.0842,-0.0843,-0.0844,-0.0958,-0.0961,-0.0964,0,0,0,0,0,0,0,0,0,0,0,0,0,0,0,-0.0618,-0.062,0,-0.0751,-0.0753,-0.0754,-0.0841,-0.0842,-0.0843,-0.0843,-0.0959,-0.0962,-0.0964,0,0,0,0,0,0,0,0,0,0,0,0,0,0,0,0,0,0,0,0,0,0,0,0,0,0,0,0,0,0,0,0,0,0,0,0,0,0,0,0,0,0,0,0,0,0,0,0,0,0,0,0,0,0,0,0,0,0,0,0,0,0,0,0,0,0,0,0,0]}]],[[{"header":{"parameterUnit":"kt","parameterCategory":2,"dx":1,"dy":1,"la1":30.253999710083008,"la2":30.299108505249023,"lo1":-89.0895004272461,"lo2":-89.04439544677734,"nx":28,"ny":28,"refTime":"2022-09-28T21:00:00:Z","depth":"4","parameterNumber":2,"parameterNumberName":"U-component_of_CURRENTS"},"data":[0.1934,0.2001,0.203,0.2042,0.2082,0.2198,0.2311,0.2489,0.2507,0.2784,0.286,0.3085,0.3246,0.3399,0.3431,0.3475,0.3422,0.3872,0.3864,0.3903,0.3924,0.3942,0.3786,0,0,0,0,0,0.1995,0.2011,0.2089,0.2171,0.2294,0.2381,0.2574,0.268,0.294,0.2967,0.3116,0.3271,0.3403,0.3539,0.349,0.3773,0.3862,0.3701,0.3717,0.3916,0.3938,0.378,0,0,0,0,0,0,0.2077,0.21,0.2208,0.2305,0.2437,0.2505,0.2608,0.2747,0.2873,0.3247,0.3288,0.357,0.3803,0.3823,0.3897,0.3909,0.3843,0.3702,0.3734,0.3758,0.3597,0.346,0.3348,0,0,0,0,0,0.2138,0.2224,0.2294,0.2418,0.2541,0.2644,0.2838,0.2884,0.3173,0.3404,0.3557,0.3659,0.3846,0.3944,0.4026,0.4048,0.4212,0.4164,0.4173,0.4043,0.3975,0.3949,0.3948,0.4024,0.4027,0.4028,0.4029,0,0.2232,0.2267,0.2448,0.2509,0.2606,0.2769,0.2879,0.312,0.3232,0.3579,0.3654,0.3915,0.4057,0.4084,0.424,0.429,0.4246,0.4224,0.4085,0.401,0.3981,0.3973,0.3964,0.4048,0.4046,0.4045,0.4043,0,0.228,0.2369,0.2453,0.2634,0.2707,0.281,0.3037,0.3147,0.3385,0.3571,0.3662,0.3917,0.4092,0.4221,0.4378,0.4278,0.4309,0.4269,0.4424,0.4405,0.4006,0.399,0.4077,0.4071,0.4065,0.406,0.4056,0,0.2359,0.2428,0.2574,0.2612,0.2737,0.2869,0.3031,0.3191,0.3397,0.3533,0.3723,0.3847,0.4036,0.4163,0.4206,0.422,0.4368,0.413,0.4108,0.4238,0.4222,0.4217,0.4197,0.4378,0.4377,0.4376,0.4375,0,0.2389,0.251,0.2572,0.2614,0.2773,0.2866,0.2994,0.3187,0.3291,0.3537,0.3652,0.3824,0.3963,0.4049,0.4153,0.4121,0.4324,0.4266,0.4099,0.4084,0.4203,0.4185,0.4374,0.4374,0.4374,0.4373,0.4373,0,0.2444,0.2493,0.2569,0.2705,0.2739,0.2839,0.3028,0.314,0.3342,0.3447,0.3599,0.3692,0.3854,0.3842,0.4024,0.3984,0.4031,0.4069,0.4074,0.3848,0.3764,0.3933,0.4087,0.4084,0.4082,0.4079,0.4077,0,0.2443,0.2513,0.2563,0.2673,0.2715,0.2824,0.2936,0.3061,0.319,0.3347,0.3447,0.3598,0.3612,0.3707,0.3782,0.3863,0.3933,0.3845,0.3948,0.3951,0.3742,0.3835,0.3914,0.4043,0.4048,0.4051,0.4053,0,0.2428,0.2521,0.2544,0.2593,0.2704,0.2755,0.2873,0.2993,0.3103,0.3237,0.3372,0.3503,0.3571,0.3616,0.3663,0.3737,0.3877,0.3746,0.3748,0.3791,0.4042,0.3821,0.382,0.3895,0.3899,0.3902,0.403,0,0.2448,0.2508,0.2531,0.2612,0.2671,0.273,0.2818,0.292,0.3024,0.3097,0.3257,0.3323,0.3441,0.3487,0.35,0.3644,0.3642,0.3615,0.358,0.3672,0.3711,0.373,0.348,0.3479,0.3477,0.3476,0,0,0.2431,0.2467,0.2511,0.2552,0.2598,0.2688,0.2736,0.2816,0.2932,0.2988,0.3023,0.3215,0.3265,0.3379,0.3426,0.3434,0.3477,0.3478,0.3615,0.3631,0.3645,0.3689,0.3708,0.3473,0.3473,0.3472,0.3472,0,0.2408,0.246,0.2487,0.2538,0.2614,0.2658,0.2697,0.2782,0.2852,0.2962,0.2998,0.3093,0.3219,0.3263,0.3301,0.3403,0.3444,0.3455,0.3532,0.36,0.3617,0.3633,0.3679,0.3698,0.3468,0.3468,0.3468,0,0.239,0.242,0.2441,0.2508,0.2558,0.2613,0.264,0.2715,0.2785,0.2809,0.2947,0.3001,0.3053,0.3155,0.3214,0.3193,0.3394,0.3333,0.3341,0.3351,0.3419,0.3439,0.3457,0.3229,0.3228,0.3228,0,0,0.2378,0.241,0.2458,0.2504,0.2531,0.2603,0.2649,0.2697,0.2758,0.2805,0.2883,0.2955,0.3023,0.308,0.3132,0.3227,0.324,0.3306,0.3317,0.3327,0.3342,0.3411,0.3431,0.3225,0.3225,0.3225,0,0,0.2368,0.2406,0.2439,0.2481,0.2543,0.259,0.2641,0.2696,0.2784,0.2806,0.286,0.288,0.3001,0.3017,0.2978,0.3161,0.311,0.3119,0.3166,0.3181,0.3192,0.3196,0.2995,0,0,0,0,0,0.2365,0.239,0.2419,0.2432,0.2511,0.2567,0.2583,0.2656,0.2703,0.2754,0.2811,0.2845,0.3,0.2965,0.2984,0.3085,0.3196,0.3201,0.3206,0.3288,0.3303,0.3315,0,0,0,0,0,0,0.2369,0.2382,0.2418,0.2456,0.2476,0.2565,0.2583,0.2604,0.27,0.2713,0.2827,0.2844,0.2862,0.2959,0.2976,0.3072,0.299,0.3198,0.3202,0.3206,0.3293,0.3305,0.3315,0,0,0,0,0,0.2374,0.2384,0.2493,0.2458,0.2475,0.2568,0.2585,0.2603,0.2702,0.2744,0.2768,0.2765,0.2858,0.288,0.2969,0.3065,0.2979,0.2985,0.3201,0.3204,0.3207,0.3299,0,0,0,0,0,0,0.2377,0.2406,0.2498,0.2507,0.2473,0.2569,0.2586,0.2601,0.2731,0.2752,0.2676,0.2683,0.2856,0.2873,0.2889,0.3062,0.297,0.2976,0.298,0.3203,0.3206,0.3209,0,0,0,0,0,0,0.2401,0.2412,0.2503,0.2517,0.2528,0.2569,0.2584,0.2638,0.2733,0.2657,0.2666,0.2678,0.2844,0.2868,0.2881,0.296,0.2964,0.2969,0.2973,0.2976,0.3206,0.3208,0,0,0,0,0,0,0.2407,0.2417,0.2516,0.2524,0.2533,0.2635,0.262,0.2709,0.2716,0.2651,0.2722,0.2725,0.2838,0.2852,0.2874,0.2948,0.2957,0.2964,0.2968,0.297,0.2972,0,0,0,0,0,0,0,0.2412,0.2326,0.2446,0.2529,0.2538,0.2583,0.2586,0.2588,0.2717,0.2719,0.2722,0.2724,0.2931,0.2937,0.2944,0.2938,0,0,0.2963,0.2966,0,0,0,0,0,0,0,0,0.2324,0.2326,0.2447,0.2448,0.245,0.2584,0.2586,0.2588,0.2717,0.2719,0.2721,0.2723,0.2933,0.2938,0.2943,0,0,0,0,0,0,0,0,0,0,0,0,0,0,0,0.2447,0.2448,0,0.2584,0.2586,0.2587,0.2718,0.2719,0.2721,0.2722,0.2934,0.2938,0.2943,0,0,0,0,0,0,0,0,0,0,0,0,0,0,0,0,0,0,0,0,0,0,0,0,0,0,0,0,0,0,0,0,0,0,0,0,0,0,0,0,0,0,0,0,0,0,0,0,0,0,0,0,0,0,0,0,0,0,0,0,0,0,0,0,0,0,0,0,0]}],[{"header":{"parameterUnit":"kt","parameterCategory":2,"dx":1,"dy":1,"la1":30.253999710083008,"la2":30.299108505249023,"lo1":-89.0895004272461,"lo2":-89.04439544677734,"nx":28,"ny":28,"refTime":"2022-09-28T21:00:00:Z","depth":"4","parameterNumber":3,"parameterNumberName":"V-component_of_CURRENTS"},"data":[0.0856,0.0945,0.0983,0.11,0.117,0.1277,0.1331,0.1335,0.1309,0.1271,0.1052,0.0936,0.0521,0.0737,0.0102,0.0014,-0.0124,-0.0558,-0.0564,-0.0758,-0.0755,-0.0752,-0.0628,0,0,0,0,0,0.0836,0.089,0.098,0.1079,0.117,0.1231,0.1306,0.1319,0.1319,0.1276,0.123,0.0995,0.0568,0.0375,0.0101,-0.0024,-0.0401,-0.0356,-0.0514,-0.0756,-0.0753,-0.0633,0,0,0,0,0,0,0.081,0.0858,0.0945,0.103,0.1125,0.1202,0.1231,0.1254,0.1267,0.1203,0.1172,0.0886,0.0717,0.0295,0.0018,-0.0259,-0.0338,-0.0427,-0.0441,-0.0442,-0.03,-0.0185,-0.0258,0,0,0,0,0,0.0773,0.0811,0.0875,0.0979,0.1052,0.1122,0.1191,0.1211,0.1205,0.1169,0.1077,0.084,0.058,0.0236,-0.007,-0.035,-0.0568,-0.0661,-0.0662,-0.0644,-0.059,-0.0615,-0.06,-0.074,-0.0739,-0.0739,-0.0739,0,0.0725,0.0769,0.0866,0.0916,0.0953,0.1017,0.1062,0.1061,0.1079,0.101,0.1007,0.0792,0.0643,0.0215,-0.0075,-0.0468,-0.0519,-0.0651,-0.063,-0.0583,-0.0613,-0.0597,-0.0583,-0.0736,-0.0737,-0.0737,-0.0737,0,0.07,0.073,0.0804,0.0864,0.089,0.0938,0.0984,0.1,0.0958,0.0941,0.0913,0.073,0.0503,0.0236,-0.0085,-0.0242,-0.0484,-0.0568,-0.0444,-0.0479,-0.0586,-0.0572,-0.0732,-0.0733,-0.0734,-0.0734,-0.0735,0,0.066,0.0708,0.0753,0.079,0.0859,0.0853,0.0897,0.0878,0.0836,0.0833,0.0681,0.0628,0.036,0.018,-0.0024,-0.0269,-0.0291,-0.0443,-0.0489,-0.0397,-0.0385,-0.0451,-0.0444,-0.0497,-0.0496,-0.0495,-0.0493,0,0.0609,0.0662,0.0719,0.0731,0.0759,0.0785,0.0792,0.0748,0.0748,0.0651,0.0615,0.0462,0.038,0.0186,-0.0031,-0.0031,-0.0292,-0.0319,-0.044,-0.044,-0.044,-0.0435,-0.0492,-0.0492,-0.0491,-0.0491,-0.049,0,0.0561,0.0595,0.0659,0.0695,0.0701,0.0723,0.0712,0.0712,0.0632,0.0588,0.0496,0.0403,0.0289,0.0229,0.0002,0.0056,-0.0086,-0.0195,-0.0205,-0.0232,-0.0265,-0.0321,-0.0329,-0.0327,-0.0325,-0.0323,-0.0322,0,0.0507,0.0566,0.0559,0.0608,0.0628,0.0584,0.0597,0.0566,0.0512,0.0464,0.0367,0.0317,0.0252,0.0212,0.0127,-0.0006,-0.0089,-0.0001,-0.0247,-0.0254,-0.0246,-0.0256,-0.0107,-0.0294,-0.0297,-0.03,-0.0302,0,0.0454,0.0477,0.0483,0.05,0.0476,0.0479,0.0482,0.0455,0.0445,0.0379,0.0346,0.0279,0.0209,0.0173,0.0108,0.0032,-0.0052,-0.0032,-0.0038,-0.0109,-0.0241,-0.0225,-0.024,-0.0097,-0.0099,-0.01,-0.0282,0,0.0412,0.0426,0.0441,0.0436,0.0428,0.0436,0.0397,0.038,0.0336,0.0293,0.0247,0.0179,0.0113,0.0089,0.0053,-0.0003,-0.0042,-0.0068,-0.0118,-0.0098,-0.0179,-0.0193,-0.0042,-0.0043,-0.0045,-0.0046,0,0,0.0352,0.0369,0.0331,0.0347,0.0343,0.0274,0.0293,0.0268,0.022,0.0204,0.0174,0.008,0.0032,-0.0005,0.0003,-0.0015,-0.0079,-0.0048,-0.0092,-0.0096,-0.0101,-0.0177,-0.019,-0.0048,-0.0048,-0.0049,-0.0049,0,0.0331,0.0307,0.0328,0.0312,0.0284,0.0253,0.0249,0.0201,0.0178,0.0165,0.0106,0.0063,0.001,-0.0033,-0.0061,-0.0029,-0.013,-0.005,-0.0018,-0.01,-0.0103,-0.0106,-0.018,-0.0191,-0.0052,-0.0052,-0.0052,0,0.028,0.0263,0.0264,0.0238,0.0212,0.0211,0.0149,0.0138,0.0136,0.0057,0.0042,-0.0007,-0.0063,-0.0079,-0.0094,-0.0116,-0.0178,-0.014,-0.0134,-0.0142,-0.0231,-0.0233,-0.0234,-0.0218,-0.0219,-0.0219,0,0,0.0262,0.0267,0.0221,0.0227,0.0216,0.0163,0.0147,0.0115,0.0081,0.0063,0.0012,-0.0035,-0.0068,-0.0093,-0.0125,-0.014,-0.0204,-0.0158,-0.015,-0.0143,-0.0147,-0.0233,-0.0234,-0.022,-0.022,-0.022,0,0,0.0248,0.0213,0.0187,0.0192,0.0163,0.0113,0.0113,0.0072,0.0041,0.0035,-0.0036,-0.005,-0.0071,-0.0111,-0.0114,-0.0157,-0.0192,-0.0192,-0.0129,-0.0121,-0.0113,-0.0109,-0.019,0,0,0,0,0,0.0204,0.0221,0.0199,0.0193,0.0148,0.0128,0.012,0.0069,0.0035,0.0035,-0.0003,-0.0061,-0.0123,-0.0127,-0.0139,-0.015,-0.0233,-0.023,-0.0228,-0.0151,-0.0141,-0.0132,0,0,0,0,0,0,0.0201,0.0196,0.0198,0.0153,0.0142,0.0127,0.0077,0.0063,0.0034,0.0026,-0.0048,-0.0062,-0.0105,-0.0126,-0.0136,-0.0145,-0.0187,-0.0232,-0.023,-0.0228,-0.0148,-0.0139,-0.0132,0,0,0,0,0,0.0199,0.0194,0.0137,0.0152,0.0142,0.008,0.0076,0.0064,0.0035,-0.0028,-0.0044,-0.0003,-0.0103,-0.0116,-0.0132,-0.0139,-0.0181,-0.0184,-0.0231,-0.0229,-0.0228,-0.0143,0,0,0,0,0,0,0.0197,0.018,0.0133,0.0128,0.014,0.0079,0.0069,0.0064,-0.0019,-0.0033,0.0014,0.0009,-0.0101,-0.0112,-0.0122,-0.0133,-0.0175,-0.0179,-0.0181,-0.0229,-0.0228,-0.0227,0,0,0,0,0,0,0.0182,0.0176,0.013,0.0118,0.0111,0.0079,0.007,0.0039,-0.002,0.0027,0.0021,0.0013,-0.0095,-0.0108,-0.0116,-0.0163,-0.0171,-0.0175,-0.0177,-0.0179,-0.0228,-0.0227,0,0,0,0,0,0,0.0178,0.0173,0.0119,0.0113,0.0107,0.0043,0.0048,-0.0001,-0.0012,0.0031,-0.0016,-0.0018,-0.0091,-0.01,-0.0112,-0.0155,-0.0161,-0.0171,-0.0174,-0.0175,-0.0176,0,0,0,0,0,0,0,0.0175,0.0225,0.0166,0.011,0.0104,0.0079,0.0077,0.0076,-0.0012,-0.0014,-0.0016,-0.0017,-0.0152,-0.0155,-0.0159,-0.0148,0,0,-0.0171,-0.0173,0,0,0,0,0,0,0,0,0.0226,0.0226,0.0166,0.0165,0.0164,0.0079,0.0077,0.0076,-0.0012,-0.0014,-0.0015,-0.0016,-0.0153,-0.0156,-0.0159,0,0,0,0,0,0,0,0,0,0,0,0,0,0,0,0.0165,0.0165,0,0.0079,0.0078,0.0076,-0.0013,-0.0014,-0.0015,-0.0016,-0.0153,-0.0156,-0.0158,0,0,0,0,0,0,0,0,0,0,0,0,0,0,0,0,0,0,0,0,0,0,0,0,0,0,0,0,0,0,0,0,0,0,0,0,0,0,0,0,0,0,0,0,0,0,0,0,0,0,0,0,0,0,0,0,0,0,0,0,0,0,0,0,0,0,0,0,0]}]]]